When you browse on this site, cookies collect data to enhance your experience and personalize the content and advertising you see.
Visit our Privacy Policy to learn more. By continuing to use the site, you agree to this use of cookies and data.
  • Em Portugal
  • Lista de países
  • Para 7 dias
  • Temperatura da água
  • Mapas de satélite
  • Mapa do tempo
  • Widgets de tempo
  • user-avatar
    Iniciar Sessão

    Previsão horária em Salta

    Hoje, 23 Maio, Quinta-feira

    Tempo Temperatura Precipitação Vento Pressão Humidade
    00:00 +6°C° 0 mm 2 m/s 652 mmHg 86%
    01:00 +6°C° 0 mm 2 m/s 652 mmHg 85%
    02:00 +5°C° 0 mm 2 m/s 651 mmHg 85%
    03:00 +5°C° 0.1 mm 2 m/s 651 mmHg 85%
    04:00 +5°C° 0.1 mm 2 m/s 651 mmHg 85%
    05:00 +5°C° 0.1 mm 2 m/s 651 mmHg 84%
    06:00 +5°C° 0 mm 2 m/s 651 mmHg 82%
    07:00 +5°C° 0 mm 2 m/s 652 mmHg 79%
    08:00 +6°C° 0 mm 2 m/s 652 mmHg 76%
    09:00 +8°C° 0 mm 2 m/s 653 mmHg 70%
    10:00 +9°C° 0 mm 2 m/s 653 mmHg 64%
    11:00 +12°C° 0 mm 2 m/s 653 mmHg 58%
    12:00 +12°C° 0 mm 3 m/s 654 mmHg 53%
    13:00 +14°C° 0 mm 3 m/s 654 mmHg 48%
    14:00 +16°C° 0 mm 3 m/s 654 mmHg 43%
    15:00 +15°C° 0 mm 2 m/s 653 mmHg 46%
    16:00 +14°C° 0 mm 2 m/s 653 mmHg 50%
    17:00 +14°C° 0 mm 2 m/s 653 mmHg 54%
    18:00 +12°C° 0 mm 1 m/s 653 mmHg 60%
    19:00 +10°C° 0 mm 1 m/s 652 mmHg 67%
    20:00 +8°C° 0 mm 1 m/s 652 mmHg 73%
    21:00 +8°C° 0 mm 1 m/s 652 mmHg 70%
    22:00 +8°C° 0 mm 1 m/s 653 mmHg 68%
    23:00 +7°C° 0 mm 1 m/s 653 mmHg 65%

    Amanhã, 24 Maio, Sexta-feira

    Tempo Temperatura Precipitação Vento Pressão Humidade
    00:00 +8°C° 0 mm 1 m/s 653 mmHg 63%
    01:00 +8°C° 0 mm 1 m/s 653 mmHg 60%
    02:00 +8°C° 0 mm 1 m/s 652 mmHg 58%
    03:00 +8°C° 0 mm 1 m/s 652 mmHg 56%
    04:00 +8°C° 0 mm 1 m/s 652 mmHg 54%
    05:00 +8°C° 0 mm 1 m/s 652 mmHg 52%
    06:00 +9°C° 0 mm 1 m/s 652 mmHg 49%
    07:00 +10°C° 0 mm 1 m/s 652 mmHg 47%
    08:00 +11°C° 0 mm 1 m/s 653 mmHg 44%
    09:00 +13°C° 0 mm 1 m/s 653 mmHg 39%
    10:00 +16°C° 0 mm 2 m/s 654 mmHg 35%
    11:00 +19°C° 0 mm 2 m/s 655 mmHg 31%
    12:00 +19°C° 0 mm 2 m/s 654 mmHg 29%
    13:00 +20°C° 0 mm 3 m/s 653 mmHg 28%
    14:00 +21°C° 0 mm 3 m/s 653 mmHg 27%
    15:00 +20°C° 0 mm 2 m/s 652 mmHg 30%
    16:00 +18°C° 0 mm 2 m/s 651 mmHg 33%
    17:00 +17°C° 0 mm 2 m/s 650 mmHg 36%
    18:00 +15°C° 0 mm 1 m/s 650 mmHg 38%
    19:00 +12°C° 0 mm 1 m/s 650 mmHg 41%
    20:00 +10°C° 0 mm 1 m/s 649 mmHg 43%
    21:00 +10°C° 0 mm 1 m/s 649 mmHg 43%
    22:00 +9°C° 0 mm 1 m/s 649 mmHg 42%
    23:00 +9°C° 0 mm 1 m/s 649 mmHg 42%

    Depois de amanhã, 25 Maio, Sábado

    Tempo Temperatura Precipitação Vento Pressão Humidade
    00:00 +9°C° 0 mm 1 m/s 649 mmHg 43%
    01:00 +9°C° 0 mm 1 m/s 648 mmHg 45%
    02:00 +8°C° 0 mm 1 m/s 648 mmHg 46%
    03:00 +8°C° 0 mm 1 m/s 648 mmHg 46%
    04:00 +8°C° 0 mm 1 m/s 648 mmHg 46%
    05:00 +8°C° 0 mm 1 m/s 647 mmHg 46%
    06:00 +9°C° 0 mm 1 m/s 648 mmHg 44%
    07:00 +11°C° 0 mm 1 m/s 648 mmHg 42%
    08:00 +12°C° 0 mm 1 m/s 649 mmHg 40%
    09:00 +15°C° 0 mm 1 m/s 649 mmHg 36%
    10:00 +18°C° 0 mm 2 m/s 650 mmHg 32%
    11:00 +21°C° 0 mm 2 m/s 650 mmHg 28%
    12:00 +23°C° 0 mm 2 m/s 650 mmHg 27%
    13:00 +23°C° 0 mm 2 m/s 649 mmHg 26%
    14:00 +24°C° 0 mm 3 m/s 648 mmHg 25%
    15:00 +23°C° 0 mm 2 m/s 648 mmHg 30%
    16:00 +21°C° 0 mm 2 m/s 647 mmHg 35%
    17:00 +19°C° 0 mm 2 m/s 647 mmHg 40%
    18:00 +18°C° 0 mm 1 m/s 647 mmHg 45%
    19:00 +15°C° 0 mm 1 m/s 647 mmHg 50%
    20:00 +13°C° 0 mm 1 m/s 647 mmHg 55%
    21:00 +12°C° 0 mm 1 m/s 647 mmHg 54%
    22:00 +12°C° 0 mm 1 m/s 647 mmHg 53%
    23:00 +12°C° 0 mm 1 m/s 648 mmHg 52%

    26 Maio, Domingo

    Tempo Temperatura Precipitação Vento Pressão Humidade
    00:00 +12°C° 0 mm 1 m/s 647 mmHg 50%
    01:00 +12°C° 0 mm 2 m/s 647 mmHg 47%
    02:00 +12°C° 0 mm 2 m/s 647 mmHg 45%
    03:00 +12°C° 0 mm 2 m/s 647 mmHg 42%
    04:00 +12°C° 0 mm 2 m/s 647 mmHg 40%
    05:00 +12°C° 0 mm 2 m/s 647 mmHg 37%
    06:00 +13°C° 0 mm 2 m/s 647 mmHg 35%
    07:00 +14°C° 0 mm 2 m/s 648 mmHg 33%
    08:00 +15°C° 0 mm 2 m/s 649 mmHg 31%
    09:00 +18°C° 0 mm 2 m/s 650 mmHg 28%
    10:00 +21°C° 0 mm 2 m/s 650 mmHg 24%
    11:00 +25°C° 0 mm 2 m/s 651 mmHg 21%
    12:00 +26°C° 0 mm 3 m/s 650 mmHg 22%
    13:00 +26°C° 0 mm 3 m/s 649 mmHg 22%
    14:00 +27°C° 0 mm 3 m/s 649 mmHg 23%
    15:00 +25°C° 0 mm 3 m/s 648 mmHg 30%
    16:00 +22°C° 0 mm 3 m/s 648 mmHg 36%
    17:00 +21°C° 0 mm 3 m/s 648 mmHg 43%
    18:00 +18°C° 0 mm 2 m/s 648 mmHg 52%
    19:00 +16°C° 0 mm 2 m/s 648 mmHg 62%
    20:00 +13°C° 0 mm 1 m/s 648 mmHg 71%
    21:00 +13°C° 0 mm 1 m/s 648 mmHg 71%
    22:00 +13°C° 0 mm 1 m/s 648 mmHg 71%
    23:00 +13°C° 0 mm 1 m/s 649 mmHg 71%

    27 Maio, Segunda-feira

    Tempo Temperatura Precipitação Vento Pressão Humidade
    00:00 +13°C° 0 mm 1 m/s 648 mmHg 69%
    01:00 +13°C° 0 mm 1 m/s 648 mmHg 68%
    02:00 +13°C° 0 mm 2 m/s 648 mmHg 66%
    03:00 +12°C° 0 mm 1 m/s 648 mmHg 64%
    04:00 +12°C° 0 mm 1 m/s 648 mmHg 63%
    05:00 +12°C° 0 mm 1 m/s 648 mmHg 61%
    06:00 +13°C° 0 mm 1 m/s 648 mmHg 57%
    07:00 +13°C° 0 mm 1 m/s 649 mmHg 54%
    08:00 +14°C° 0 mm 1 m/s 649 mmHg 50%
    09:00 +17°C° 0 mm 2 m/s 650 mmHg 43%
    10:00 +20°C° 0 mm 2 m/s 651 mmHg 37%
    11:00 +24°C° 0 mm 2 m/s 651 mmHg 30%
    12:00 +24°C° 0 mm 2 m/s 651 mmHg 27%
    13:00 +25°C° 0 mm 3 m/s 650 mmHg 24%
    14:00 +25°C° 0 mm 4 m/s 649 mmHg 21%
    15:00 +24°C° 0 mm 3 m/s 649 mmHg 26%
    16:00 +21°C° 0 mm 3 m/s 649 mmHg 32%
    17:00 +20°C° 0 mm 2 m/s 649 mmHg 38%
    18:00 +18°C° 0 mm 2 m/s 649 mmHg 46%
    19:00 +16°C° 0 mm 2 m/s 649 mmHg 54%
    20:00 +13°C° 0 mm 1 m/s 649 mmHg 62%
    21:00 +13°C° 0 mm 1 m/s 649 mmHg 63%
    22:00 +13°C° 0 mm 1 m/s 649 mmHg 64%
    23:00 +13°C° 0 mm 1 m/s 650 mmHg 65%

    28 Maio, Terça-feira

    Tempo Temperatura Precipitação Vento Pressão Humidade
    00:00 +13°C° 0 mm 2 m/s 649 mmHg 66%
    01:00 +13°C° 0 mm 2 m/s 649 mmHg 66%
    02:00 +13°C° 0 mm 2 m/s 649 mmHg 67%
    03:00 +13°C° 0 mm 2 m/s 649 mmHg 69%
    04:00 +12°C° 0 mm 1 m/s 649 mmHg 70%
    05:00 +12°C° 0 mm 1 m/s 649 mmHg 72%
    06:00 +12°C° 0 mm 1 m/s 650 mmHg 71%
    07:00 +13°C° 0 mm 1 m/s 650 mmHg 70%
    08:00 +13°C° 0 mm 1 m/s 651 mmHg 68%
    09:00 +15°C° 0 mm 1 m/s 651 mmHg 66%
    10:00 +16°C° 0 mm 2 m/s 651 mmHg 63%
    11:00 +17°C° 0 mm 2 m/s 652 mmHg 60%
    12:00 +18°C° 0 mm 2 m/s 651 mmHg 59%
    13:00 +19°C° 0 mm 2 m/s 651 mmHg 57%
    14:00 +20°C° 0 mm 3 m/s 650 mmHg 56%
    15:00 +19°C° 0 mm 2 m/s 650 mmHg 60%
    16:00 +18°C° 0 mm 2 m/s 650 mmHg 65%
    17:00 +17°C° 0 mm 2 m/s 649 mmHg 70%
    18:00 +16°C° 0 mm 2 m/s 650 mmHg 75%
    19:00 +14°C° 0 mm 1 m/s 650 mmHg 81%
    20:00 +13°C° 0 mm 1 m/s 650 mmHg 87%
    21:00 +13°C° 0.1 mm 1 m/s 650 mmHg 85%
    22:00 +13°C° 0.1 mm 1 m/s 650 mmHg 84%
    23:00 +13°C° 0.1 mm 1 m/s 650 mmHg 82%
    Mostrar mais